Naples, Italy

11:11 AM CET on February 21, 2017 (GMT +0100)
Naples

Weather History for 16289 - September, 2013

Change the Weather History Date:

Saturday, September 14, 2013

  Actual Average Record
Temperature  
Mean Temperature 70 °F -  
Max Temperature 78 °F 75 °F - ()
Min Temperature 62 °F 57 °F - ()
Cooling Degree Days 5    
Growing Degree Days 20 (Base 50)    
Moisture  
Dew Point 60 °F    
Average Humidity 68    
Maximum Humidity 82    
Minimum Humidity 51    
Precipitation  
Precipitation 0.00 in 0.14 in - ()
Sea Level Pressure  
Sea Level Pressure 30.09 in    
Wind  
Wind Speed 4 mph ()    
Max Wind Speed 13 mph    
Max Gust Speed -    
Visibility 6.2 miles    
Events      
T = Trace of Precipitation, MM = Missing Value Source: Averaged Metar Reports

Daily Weather History Graph

Daily Weather History Graph

Search for Another Location

Airport or City:

Trip Planner

Search our weather history database for the weather conditions in past years. The results will help you decide how hot, cold, wet, or windy it might be!

Date:

Astronomy

Sep. 14, 2013 Rise Set
Actual Time 6:42 AM CEST 7:13 PM CEST
Civil Twilight 6:14 AM CEST 7:41 PM CEST
Nautical Twilight 5:42 AM CEST 8:13 PM CEST
Astronomical Twilight 5:08 AM CEST 8:46 PM CEST
Moon 3:42 PM CEST (9/14) 12:53 AM CEST (9/14)
Length of Visible Light 13h 26m
Length of Day
12h 31m
Waxing Gibbous, 69% of the Moon is Illuminated
Sep 14
Waxing Gibbous
Sep 19
Full
Sep 27
Last Quarter
Oct 5
New
Oct 12
First Quarter

Hourly Weather History & Observations

Time (CEST) Temp. Dew Point Humidity Pressure Visibility Wind Dir Wind Speed Gust Speed Precip Events Conditions
12:20 AM 68.0 °F 59.0 °F 73% 30.12 in 6.2 mi NE 3.5 mph - N/A   Partly Cloudy
12:50 AM 66.2 °F 59.0 °F 78% 30.09 in - ENE 2.3 mph - N/A   Clear
1:20 AM 66.2 °F 59.0 °F 78% 30.09 in - Variable 2.3 mph - N/A   Clear
1:50 AM 66.2 °F 57.2 °F 73% 30.09 in - NNE 2.3 mph - N/A   Clear
2:20 AM 66.2 °F 57.2 °F 73% 30.09 in - NE 2.3 mph - N/A   Clear
2:50 AM 66.2 °F 57.2 °F 73% 30.09 in - NNE 3.5 mph - N/A   Clear
3:20 AM 62.6 °F 57.2 °F 82% 30.09 in - NW 2.3 mph - N/A   Clear
3:50 AM 64.4 °F 57.2 °F 77% 30.09 in - Variable 1.2 mph - N/A   Clear
4:20 AM 64.4 °F 57.2 °F 77% 30.09 in - NNE 2.3 mph - N/A   Clear
4:50 AM 64.4 °F 57.2 °F 77% 30.09 in - North 2.3 mph - N/A   Clear
5:20 AM 62.6 °F 57.2 °F 82% 30.09 in - NNE 3.5 mph - N/A   Clear
5:50 AM 62.6 °F 57.2 °F 82% 30.09 in - North 2.3 mph - N/A   Clear
6:20 AM 62.6 °F 57.2 °F 82% 30.09 in - NNE 3.5 mph - N/A   Clear
6:50 AM 62.6 °F 57.2 °F 82% 30.09 in - NNE 4.6 mph - N/A   Clear
7:20 AM 64.4 °F 57.2 °F 77% 30.09 in - NNW 3.5 mph - N/A   Clear
7:50 AM 66.2 °F 59.0 °F 78% 30.12 in - North 3.5 mph - N/A   Clear
8:20 AM 69.8 °F 60.8 °F 73% 30.12 in - Variable 2.3 mph - N/A   Clear
8:50 AM 69.8 °F 59.0 °F 68% 30.12 in - NE 3.5 mph - N/A   Clear
9:20 AM 71.6 °F 60.8 °F 69% 30.12 in - NE 3.5 mph - N/A   Clear
9:50 AM 75.2 °F 60.8 °F 61% 30.12 in - Variable 3.5 mph - N/A   Clear
10:20 AM 77.0 °F 62.6 °F 61% 30.12 in 6.2 mi South 5.8 mph - N/A   Partly Cloudy
10:50 AM 77.0 °F 60.8 °F 57% 30.12 in 6.2 mi SSW 5.8 mph - N/A   Partly Cloudy
11:20 AM 75.2 °F 62.6 °F 65% 30.12 in 6.2 mi South 6.9 mph - N/A   Scattered Clouds
11:50 AM 75.2 °F 60.8 °F 61% 30.12 in 6.2 mi SSW 6.9 mph - N/A   Scattered Clouds
12:20 PM 75.2 °F 62.6 °F 65% 30.12 in 6.2 mi South 6.9 mph - N/A   Scattered Clouds
12:50 PM 75.2 °F 62.6 °F 65% 30.12 in 6.2 mi South 8.1 mph - N/A   Scattered Clouds
1:20 PM 77.0 °F 62.6 °F 61% 30.12 in 6.2 mi SSW 8.1 mph - N/A   Scattered Clouds
1:50 PM 78.8 °F 62.6 °F 57% 30.09 in 6.2 mi South 8.1 mph - N/A   Scattered Clouds
2:20 PM 78.8 °F 62.6 °F 57% 30.09 in 6.2 mi South 10.4 mph - N/A   Partly Cloudy
2:50 PM 78.8 °F 60.8 °F 54% 30.09 in 6.2 mi South 11.5 mph - N/A   Partly Cloudy
3:20 PM 78.8 °F 59.0 °F 51% 30.09 in 6.2 mi South 12.7 mph - N/A   Partly Cloudy
3:50 PM 77.0 °F 59.0 °F 54% 30.06 in 6.2 mi SSW 11.5 mph - N/A   Scattered Clouds
4:20 PM 77.0 °F 60.8 °F 57% 30.06 in 6.2 mi South 9.2 mph - N/A   Scattered Clouds
4:50 PM 77.0 °F 60.8 °F 57% 30.06 in 6.2 mi South 8.1 mph - N/A   Scattered Clouds
5:20 PM 77.0 °F 59.0 °F 54% 30.06 in 6.2 mi WSW 9.2 mph - N/A   Scattered Clouds
5:50 PM 77.0 °F 59.0 °F 54% 30.06 in 6.2 mi West 9.2 mph - N/A   Partly Cloudy
6:20 PM 77.0 °F 59.0 °F 54% 30.06 in 6.2 mi West 8.1 mph - N/A   Partly Cloudy
6:50 PM 73.4 °F 60.8 °F 65% 30.06 in 6.2 mi West 8.1 mph - N/A   Partly Cloudy
7:20 PM 71.6 °F 60.8 °F 69% 30.06 in 6.2 mi West 5.8 mph - N/A   Partly Cloudy
7:50 PM 71.6 °F 60.8 °F 69% 30.06 in - West 5.8 mph - N/A   Clear
8:20 PM 71.6 °F 60.8 °F 69% 30.06 in - West 3.5 mph - N/A   Clear
8:50 PM 71.6 °F 60.8 °F 69% 30.06 in - Variable 2.3 mph - N/A   Clear
9:20 PM 69.8 °F 59.0 °F 68% 30.09 in 6.2 mi Variable 2.3 mph - N/A   Partly Cloudy
9:50 PM 69.8 °F 59.0 °F 68% 30.09 in 6.2 mi WSW 1.2 mph - N/A   Partly Cloudy
10:20 PM 69.8 °F 60.8 °F 73% 30.06 in - Calm Calm - N/A   Clear
10:50 PM 68.0 °F 59.0 °F 73% 30.09 in - Calm Calm - N/A   Clear
11:20 PM 68.0 °F 59.0 °F 73% 30.06 in - Calm Calm - N/A   Clear
11:50 PM 68.0 °F 59.0 °F 73% 30.09 in - Variable 2.3 mph - N/A   Clear